Location: Quedlinburg
(51.7921°N, 11.1414°E)
Time: 01:22:49
(UTC+02:00)

METEOR M2 - Pass Details

Date: 15 March 2026
Orbit: 817 x 824 km, 98.5° (Epoch: 13 April)

Event Time Altitude Azimuth Distance (km) Brightness Sun altitude
Rises 03:57:52 0° 20° (NNE) 3,374 ? -23.5°
Reaches altitude 10° 04:00:27 10° 30° (NNE) 2,436 ? -23.1°
Maximum altitude 04:05:22 35° 95° (E) 1,307 ? -22.5°
Drops below altitude 10° 04:10:15 10° 161° (SSE) 2,419 ? -21.8°
Sets 04:12:47 0° 170° (S) 3,347 ? -21.4°
